User: anonymous   Login
Location: Unspecified
(0.0000°N, 0.0000°E)
Time: 08:52:31
(UTC+00:00)
Language:

STARLINK-11105 [DTC] - Orbit

View from above orbital plane
View from above orbital plane
View from above satellite
View from above satellite

Ground track
Ground track

The orbit is defined by the following mean orbital elements,

1 59758U          26145.35363624 +.00000000 +00000-0 -93155-5 0 00006
2 59758  53.1593 188.4023 0000977  76.0988 284.0139 15.69723406    09
Epoch (UTC): 25 May 2026 08:29:14
Eccentricity: 0.0000977
inclination: 53.1593°
perigee height: 359 km
apogee height: 360 km
right ascension of ascending node: 188.4023°
argument of perigee: 76.0988°
revolutions per day: 15.69723406
mean anomaly at epoch: 284.0139°

The dashed part of the orbit path shows where the satellite is in the earth's shadow,  

DLR